Starlink 30405

operational
NORAD ID: 57851 Int'l Des: 2023-141 Owner: SPXS Country: US Constellation: starlink
LEOCIRCULAR

Starlink 30405について

説明を読み込み中...

リアルタイム位置

3D地球を読み込み中...

次回通過

高度履歴

Altitude vs Time

uPlot chart will show altitude changes over time

軌道要素

1 57851U 23141M 25310.22808507 -.00005726 00000-0 -18142-3 0 9991
2 57851 53.1607 137.6671 0000890 200.3237 159.7729 15.30186051121425
Epoch: Nov 6, 2025 • Age: 17 hours

現在のステータス

高度 480.7 km
速度 7.63 km/s
衛星直下点 -18.13°S, 94.56°E
打ち上げ日 Sep 12, 2023
運用期間 2.1 years
タイプ internet

技術仕様

分類 Payload
質量 730.00 kg
乾燥質量 700.00 kg
総質量 730.00 kg
長さ 0.30 m
直径 4.10 m
スパン 29.00 m
形状 Box + pan
製造者 SPXS
バスタイプ Starlink V2M
フェーズステータス In Orbit
所有者/国 SPXS/US

大規模コンステレーション

Loading constellations...